www.pogodaiklimat.ru

Погода и климат >> Архив погоды >> Россия >> Краснодарский край >> Лабинск


ПОГОДА в Лабинске

  • Прогноз погоды в Лабинске
  • Монитор погоды в Лабинске

АРХИВ ПОГОДЫ в Лабинске

Время (UTC), дата Ветер
(напр.,м/с)
 
Видим.   Явления Облачность Т
(С)
Тd
(С)
f
(%)
Тe
(С)
Тes
(С)
Комфортность P
(гПа)
Po
(гПа)
Тmin
(С)
Tmax
(С)
R
(мм)
R24
(мм)
S
(см)
03 14.09 ЮВ 1 10 км ясно +5.7 +3.3 85 +5 +5 1020.6 988.3 +5.6
06 14.09 СВ 1 10 км ясно +17.6 +6.6 48 +19 +25 1019.3 988.4
09 14.09 З 2 10 км ясно +26.0 +6.3 28 +26 +37 жарко 1017.3 987.2
12 14.09 З 2 10 км ясно +28.3 +4.6 22 +27 +34 жарко 1016.1 986.3
15 14.09 З 2 10 км 6/0
[Ac trans Ci sp]
+25.7 +3.6 24 +25 +25 комфорт 1015.8 985.8 +28.7
18 14.09 Ю 1 10 км 3/0
[Ac trans]
+16.9 +7.1 52 +18 +18 1017.3 986.4
21 14.09 ЮВ 2 10 км ясно +14.3 +9.8 74 +14 +14 1017.8 986.6
00 15.09 Ю 2 10 км ясно +13.3 +9.7 79 +13 +13 1018.2 986.9
03 15.09 Ю 1 10 км 10/0
[Ac trans Ci sp]
+12.2 +8.9 80 +12 +12 1019.2 987.7 +12.1
06 15.09 Ю 2 10 км 10/0
[Ac trans Ci fib]
+20.7 +8.9 47 +23 +25 комфорт 1019.0 988.4
09 15.09 СЗ 3 10 км 10/0
[Ac trans Ci fib]
+26.8 +2.9 21 +25 +30 комфорт 1017.9 987.9
12 15.09 СЗ 3 10 км 10/0
[Ac trans Ci fib]
+28.2 +1.3 18 +26 +29 жарко 1017.2 987.4
15 15.09 С 1 10 км 8/0
[Ac As]
+23.7 +3.9 28 +23 +23 комфорт 1018.3 988.0 +28.4
18 15.09 Ю 1 10 км 3/0
[Ac trans]
+17.2 +7.9 54 +18 +18 1020.1 989.1
21 15.09 ЮВ 1 10 км ясно +12.6 +7.0 69 +13 +13 1020.2 988.8
00 16.09 ЮВ 1 10 км ясно +11.7 +8.6 81 +12 +12 1019.9 988.3
03 16.09 В 1 10 км ясно +10.3 +7.6 83 +10 +10 1019.1 987.4 +10.3
06 16.09 Ю 1 10 км ясно +19.0 +8.1 49 +21 +27 комфорт 1017.0 986.3 +9.5
09 16.09 СЗ 2 10 км ясно +27.3 +4.1 23 +26 +38 жарко 1014.2 984.3
12 16.09 С 2 10 км ясно +29.7 +3.8 19 +28 +34 жарко 1011.5 982.0
15 16.09 СЗ 1 10 км ясно +25.0 +6.1 30 +25 +25 комфорт 1012.2 982.2 +30.3
18 16.09 ЮЗ 1 10 км 9/0
[Ac trans]
+19.5 +8.1 48 +21 +21 комфорт 1013.3 982.8
21 16.09 Ю 1 10 км 5/0
[Ac trans]
+16.4 +10.1 66 +17 +17 1013.8 983.0
00 17.09 штиль 0 10 км 10/0
[Ac und]
+13.5 +9.6 77 +13 +13 1014.0 982.8
03 17.09 ЮВ 2 10 км 10/5 1000 м
[Sc Ac und]
+15.1 +10.9 76 +15 +15 1013.8 982.8
06 17.09 ЮВ 2 10 км 10/8 600 м
[Sc Ac trans Ci fib]
+17.9 +11.1 64 +18 +19 1013.5 982.8 +12.8
09 17.09 Ю 2 10 км 10/6 1000 м
[Sc Ac trans Ci fib]
+21.7 +10.3 48 +23 +26 комфорт 1011.7 981.5
12 17.09 Ю 2 10 км 9/6 600 м
[Cu Sc Ac trans Ci fib]
+24.1 +10.5 42 +25 +27 комфорт 1010.2 980.3
15 17.09 З 5
{11}
10 км 3/3 600 м
[Cu Sc Ac trans Ci fib]
+22.3 +5.9 34 +23 +23 комфорт 1010.6 980.4 +26.1
18 17.09 З 3 10 км 3/3 1000 м
[Sc]
+16.1 +7.4 56 +16 +16 1013.0 982.1
21 17.09 ЮВ 2 10 км 4/3 1000 м
[Sc Ac trans]
+12.4 +7.4 72 +12 +12 1013.3 982.0
00 18.09 ЮВ 2 10 км 8/4 1000 м
[Sc Ac trans]
+11.6 +9.4 86 +10 +10 1012.9 981.6
03 18.09 Ю 3 10 км 9/3 1000 м
[Sc Ac trans Ci fib]
+11.6 +8.7 82 +10 +10 1013.0 981.7 +11.2
06 18.09 Ю 3 10 км 6/0
[Ac trans]
+20.0 +6.3 41 +21 +24 комфорт 1013.0 982.5
09 18.09 З 6-11
{13}
10 км 3/0
[Ac trans]
+28.9 +2.9 19 +27 +31 жарко 1010.8 981.2
12 18.09 ЮЗ 6-13
{14}
10 км 4/0
[Ac trans]
+30.0 +3.6 19 +28 +30 жарко 1009.5 980.1
15 18.09 З 3
{13}
10 км 3/0
[Ac trans]
+26.8 +4.4 24 +26 +26 жарко 1009.5 979.8 +30.7
18 18.09 Ю 3 10 км ясно +22.0 +1.0 25 +22 +22 комфорт 1011.3 981.1
21 18.09 ЮЗ 2 10 км 10/6 600 м
[Cb cap Ac trans Ci sp]
+16.1 +10.1 68 +16 +16 1015.6 984.7
00 19.09 ЮЗ 2 10 км 10/10 600 м
[Cb cap]
+15.8 +11.5 76 +16 +16 1017.2 986.2
03 19.09 СЗ 1 10 км 10/10 600 м
[Cb cap]
+15.1 +7.2 59 +16 +16 1018.8 987.6 +15.1
06 19.09 С 1 10 км 10/10 1000 м
[Cb cap]
+15.2 +6.7 57 +16 +16 1020.3 989.1 +14.6
09 19.09 С 1 10 км 10/4 1000 м
[Cb cap Ac trans Ci fib]
+17.1 +5.3 46 +18 +22 1019.9 988.9
12 19.09 З 1 10 км 10/4 1000 м
[Cb cap Ac trans Ci fib]
+19.1 +2.2 32 +20 +23 1019.4 988.6
15 19.09 Ю 2 10 км слаб. ливневой дождь 10/6 600 м
[Cb cap Ac trans Ci fib]
+15.7 +8.7 63 +16 +16 1020.1 989.0 +19.3 0.1
18 19.09 штиль 0 10 км {ливн. осадки} 8/4 1000 м
[Cb cap Ac trans]
+11.9 +9.4 85 +11 +11 1020.1 988.5
21 19.09 Ю 1 10 км 10/4 1000 м
[Cb cap Ac trans]
+11.1 +9.2 88 +11 +11 1020.1 988.4
00 20.09 ЮВ 2 10 км 10/4 1000 м
[Cb cap Ac trans]
+9.6 +7.1 84 +8 +8 1020.0 988.2
03 20.09 штиль 0 10 км 10/4 1000 м
[Cb cap Ac trans]
+9.6 +7.5 87 +9 +9 1019.0 987.3 +9.5 0.3
06 20.09 СВ 1 10 км 10/6 1000 м
[Sc diur, vesp Ac und]
+15.7 +5.2 50 +17 +17 1017.4 986.3 +9.4
09 20.09 В 3 10 км 10/3 1000 м
[Sc Ci fib]
+20.2 +3.5 33 +21 +26 комфорт 1013.8 983.3
12 20.09 С 6
{10}
10 км 10/6 1000 м
[Sc Ci fib]
+19.2 +4.7 38 +19 +20 1011.5 981.0
15 20.09 С 4
{11}
10 км 10/6 1000 м
[Cb cap Ac und]
+12.3 +6.2 66 +10 +10 1014.4 983.1 +23.5
18 20.09 СЗ 2 10 км в посл. час гроза 10/6 600 м
[Cb cap Ac und]
+9.0 +7.8 92 +7 +7 1016.1 984.4

 

Местоположение метеостанции Лабинск (Краснодарский край, Россия): широта 44.67 долгота 40.75 высота над уровнем моря 264 м.

В архиве по умолчанию представлена погода в Лабинске за последнюю неделю. Архивные данные за месяц целиком и за предыдущие месяцы, начиная с января 2011 года, Вы можете получить, выбрав интересующий диапазон дат из раскрывающегося списка и нажав кнопку "Ввод!".


*Определитесь, кто Вы:
робот инопланетянин человек

Внимание! Время в таблицах - всемирное. Для получения местного времени необходимо прибавить поправку, которая равна 3 ч.

Смотрите также архив погоды в соседних городах и на ближайших метеорологических станциях:

Погода в Дондуковской (Адыгея, Россия) (38 км)
Погода в Армавире (Краснодарский край, Россия) (45 км)
Погода в Майкопе (Адыгея, Россия) (53 км)
Погода в Шунтуке (Адыгея, Россия) (55 км)
Погода в Псебае (Краснодарский край, Россия) (60 км)
Погода в Отрадной (Краснодарский край, Россия) (65 км)
Погода в Белореченске (Краснодарский край, Россия) (68 км)
Погода в Кропоткине (Краснодарский край, Россия) (86 км)
Погода в Гузерипле (Адыгея, Россия) (89 км)
Погода в Невинномысске (Ставропольский край, Россия) (97 км)

Пояснения к столбцам:

Ветер - указаны скорость ветра в м/с - средняя за 10 мин, порывы в срок и между сроками (в фигурных скобках) и направление, откуда дует ветер: С - северный, СВ - северо-восточный, В - восточный, ЮВ - юго-восточный, Ю - южный, ЮЗ - юго-западный, З - западный, СЗ - северо-западный.
Видимость - горизонтальная дальность видимости в метрах или километрах. При видимости от 1 до 10 км при отсутствии осадков обычно наблюдается дымка, при ухудшении видимости до 1 км и менее - туман. В сухую погоду видимость может ухудшаться дымом, пылью или мглою.
Явления - указаны атмосферные явления, наблюдавшиеся в срок или в последний час перед сроком; фигурными скобками обозначены явления, наблюдавшиеся между сроками (за 1-3 часа до срока); квадратными скобками обозначены град или гололедные отложения с указанием их диаметра в мм.
Облачность - указаны через наклонную черту общая и нижняя облачность в баллах и высота нижней границы облаков в метрах; квадратными скобками обозначены формы облаков: Ci - перистые, Cs - перисто-слоистые, Cc - перисто-кучевые, Ac - высококучевые, As - высокослоистые, Sc - слоисто-кучевые, Ns - слоисто-дождевые, Cu - кучевые, Cb - кучево-дождевые. Подробнее классификацию облаков см. в Атласе облаков (PDF).
T - Температура воздуха - температура, измеренная на высоте 2 м над землей.
Td - Температура точки росы - температура, при понижении до которой содержащийся в воздухе водяной пар достигнет насыщения.
f - Относительная влажность воздуха - влажноcть воздуха, измеренная на высоте 2 м над землей.
Te - Эффективная температура - температура, которую ощущает одетый по сезону человек в тени. Характеристика душности погоды. При расчете учитывается влияние влажности воздуха и скорости ветра на теплоощущения человека.
Tes - Эффективная температура на солнце - температура, которую ощущает человек, с поправкой на солнечный нагрев. Характеристика знойности погоды. Зависит от высоты солнца над горизонтом, облачности и скорости ветра. Ночью, в пасмурную погоду, а также при ветре 12 м/с и более поправка равна нулю.
P - Атмосферное давление - приведенное к уровню моря атмосферное давление.
Po - Атмосферное давление - измеренное на уровне метеостанции атмосферное давление.
Tmin - Минимальная температура - минимум температуры воздуха на высоте 2 м над землей.
Tmax - Максимальная температура - максимум температуры воздуха на высоте 2 м над землей.
R - Количество осадков - Количество выпавших осадков за период времени, мм. При наведении курсора мыши на число - период времени, за который выпало указанное количество осадков.
R24 - Количество осадков - Количество выпавших осадков за 24 часа, мм.
S - Снежный покров - Высота снежного покрова, см. При наведении курсора мыши на число - состояние снежного покрова и степень покрытия местности в баллах.